GW6408 Weather Reports


Display with metric or nautical units.
time (UTC)temp
F
wind
direction
speed
MPH
gust
MPH
rain 1hr
in
rain 24hr
in
rain mn
in
humidity
%
barometer
mb
20260503223022 63 316 2.0 7.0 0.00 0.00 0.00 32 1016.6
20260503221513 62 5 5.0 12.0 0.00 0.00 0.00 31 1016.5
20260503220027 62 15 5.0 10.0 0.00 0.00 0.00 31 1016.4
20260503214509 62 19 4.0 13.0 0.00 0.00 0.00 31 1016.5
20260503213005 62 360 7.0 13.0 0.00 0.00 0.00 30 1016.5
20260503211514 62 15 7.0 10.0 0.00 0.00 0.00 30 1016.5
20260503210018 62 344 6.0 11.0 0.00 0.00 0.00 30 1016.4
20260503204529 62 279 3.0 10.0 0.00 0.00 0.00 30 1016.4
20260503203006 62 337 8.0 13.0 0.00 0.00 0.00 30 1016.5
20260503201506 61 349 8.0 15.0 0.00 0.00 0.00 30 1016.6
20260503200012 61 326 9.0 18.0 0.00 0.00 0.00 30 1016.6
20260503194521 61 360 9.0 15.0 0.00 0.00 0.00 31 1016.8
20260503193022 61 352 5.0 14.0 0.00 0.00 0.00 31 1017.0
20260503191504 61 360 12.0 17.0 0.00 0.00 0.00 32 1017.2
20260503190038 60 348 10.0 16.0 0.00 0.00 0.00 32 1017.3
20260503184526 60 320 5.0 16.0 0.00 0.00 0.00 33 1017.5
20260503183021 60 337 8.0 17.0 0.00 0.00 0.00 35 1017.4
20260503181512 60 13 5.0 16.0 0.00 0.00 0.00 34 1017.5
20260503180016 59 324 9.0 16.0 0.00 0.00 0.00 35 1017.5
20260503174512 59 331 9.0 14.0 0.00 0.00 0.00 35 1017.6
20260503173019 59 350 9.0 17.0 0.00 0.00 0.00 36 1017.8
20260503171528 58 352 9.0 21.0 0.00 0.00 0.00 37 1017.9
20260503081526 53 5 4.0 10.0 0.00 0.00 0.00 60 1013.8
20260503071530 53 360 5.0 10.0 0.00 0.00 0.00 60 1013.2
20260503054535 52 329 3.0 5.0 0.00 0.00 0.00 1012.5
20260503053017 53 332 1.0 4.0 0.00 0.00 0.00 59 1012.8
20260503051520 53 352 2.0 4.0 0.00 0.00 0.00 58 1012.9
20260503050028 54 345 3.0 6.0 0.00 0.00 0.00 57 1012.8
20260503044528 54 334 2.0 6.0 0.00 0.00 0.00 58 1012.9
20260503043025 55 348 2.0 5.0 0.00 0.00 0.00 57 1012.9
20260503041519 55 16 2.0 5.0 0.00 0.00 0.00 58 1012.9
20260503040013 55 333 3.0 5.0 0.00 0.00 0.00 58 1012.9
20260503034504 55 319 2.0 5.0 0.00 0.00 0.00 59 1012.9
20260503033008 55 320 2.0 5.0 0.00 0.00 0.00 59 1012.8
20260503031516 55 325 4.0 8.0 0.00 0.00 0.00 58 1012.6
20260503030020 55 325 3.0 6.0 0.00 0.00 0.00 58 1012.8
20260503024504 56 339 2.0 5.0 0.00 0.00 0.00 58 1013.0
20260503023008 56 328 3.0 5.0 0.00 0.00 0.00 57 1012.9
20260503021517 56 9 2.0 6.0 0.00 0.00 0.00 56 1012.9
20260503020018 56 348 4.0 8.0 0.00 0.00 0.00 56 1012.8
20260503014531 56 350 3.0 6.0 0.00 0.00 0.00 55 1012.8
20260503013004 56 36 4.0 6.0 0.00 0.00 0.00 54 1012.6
20260503011524 56 30 2.0 5.0 0.00 0.00 0.00 53 1012.4
20260503010017 56 352 3.0 8.0 0.00 0.00 0.00 52 1012.5
20260503004550 56 36 3.0 6.0 0.00 0.00 0.00 53 1012.4
20260503003022 56 31 4.0 8.0 0.00 0.00 0.00 53 1012.2
20260503001508 56 38 3.0 13.0 0.00 0.00 0.00 54 1012.1
20260503000014 56 19 4.0 13.0 0.00 0.00 0.00 53 1012.0
20260502234532 56 13 6.0 12.0 0.00 0.00 0.00 49 1011.9
20260502233024 56 28 9.0 12.0 0.00 0.00 0.00 46 1011.8
20260502231524 56 28 5.0 15.0 0.00 0.00 0.00 42 1011.8
20260502230010 57 33 8.0 13.0 0.00 0.00 0.00 39 1011.8
20260502224515 57 28 7.0 13.0 0.00 0.00 0.00 41 1011.8